Cahokia, IL

1:21 PM CST on February 23, 2018 (GMT -0600)
Saint Louis Downtown

Weather History for KCPS - May, 2014

Change the Weather History Date:

Thursday, May 8, 2014

  Actual Average Record
Temperature  
Mean Temperature 78 °F -  
Max Temperature 87 °F 78 °F 91 °F (1963)
Min Temperature 70 °F 51 °F 43 °F (1960)
Cooling Degree Days 13    
Growing Degree Days 28 (Base 50)    
Moisture  
Dew Point 62 °F    
Average Humidity 63    
Maximum Humidity 81    
Minimum Humidity 44    
Precipitation  
Precipitation 0.00 in - - ()
Sea Level Pressure  
Sea Level Pressure 29.87 in    
Wind  
Wind Speed 9 mph (South)    
Max Wind Speed 15 mph    
Max Gust Speed 29 mph    
Visibility 10 miles    
Events Rain    
Averages and records for this station are not official NWS values.
T = Trace of Precipitation, MM = Missing Value Source: NWS Daily Summary

Daily Weather History Graph

Daily Weather History Graph

Search for Another Location

Airport or City:

Trip Planner

Search our weather history database for the weather conditions in past years. The results will help you decide how hot, cold, wet, or windy it might be!

Date:

Astronomy

May. 08, 2014 Rise Set
Actual Time 5:55 AM CDT 7:59 PM CDT
Civil Twilight 5:26 AM CDT 8:28 PM CDT
Nautical Twilight 4:50 AM CDT 9:04 PM CDT
Astronomical Twilight 4:12 AM CDT 9:43 PM CDT
Moon 2:04 PM CDT (5/8) 2:22 AM CDT (5/8)
Length of Visible Light 15h 02m
Length of Day
14h 03m
Waxing Gibbous, 65% of the Moon is Illuminated
May 8
Waxing Gibbous
May 14
Full
May 21
Last Quarter
May 28
New
Jun 5
First Quarter

Hourly Weather History & Observations

Time (CDT) Temp. Heat Index Dew Point Humidity Pressure Visibility Wind Dir Wind Speed Gust Speed Precip Events Conditions
12:53 AM 75.0 °F - 59.0 °F 57% 29.83 in 10.0 mi South 5.8 mph - N/A   Clear
3:53 AM 73.0 °F - 61.0 °F 66% 29.86 in 10.0 mi South 5.8 mph - N/A   Clear
4:53 AM 71.1 °F - 61.0 °F 70% 29.87 in 10.0 mi South 5.8 mph - N/A   Clear
5:53 AM 70.0 °F - 61.0 °F 73% 29.86 in 10.0 mi SSE 5.8 mph - N/A   Clear
6:53 AM 71.1 °F - 62.1 °F 73% 29.89 in 10.0 mi South 6.9 mph - 0.00 in   Clear
7:53 AM 73.9 °F - 63.0 °F 68% 29.88 in 10.0 mi South 6.9 mph - N/A   Clear
8:53 AM 75.0 °F - 63.0 °F 66% 29.90 in 10.0 mi South 10.4 mph 23.0 mph N/A   Clear
9:53 AM 78.1 °F - 63.0 °F 60% 29.88 in 10.0 mi South 11.5 mph 21.9 mph N/A   Clear
10:53 AM 81.0 °F 82.2 °F 63.0 °F 54% 29.90 in 10.0 mi SSW 8.1 mph 19.6 mph N/A   Clear
11:53 AM 82.0 °F 83.0 °F 62.1 °F 51% 29.90 in 10.0 mi South 12.7 mph 23.0 mph N/A   Clear
1:53 PM 84.9 °F 85.0 °F 61.0 °F 44% 29.86 in 10.0 mi South 13.8 mph 28.8 mph N/A   Scattered Clouds
2:53 PM 86.0 °F 86.3 °F 62.1 °F 44% 29.84 in 10.0 mi South 13.8 mph 27.6 mph N/A   Overcast
4:53 PM 82.0 °F 83.0 °F 62.1 °F 51% 29.86 in 10.0 mi South 15.0 mph 24.2 mph N/A   Clear
5:53 PM 81.0 °F 82.5 °F 64.0 °F 56% 29.85 in 10.0 mi South 12.7 mph 20.7 mph N/A   Scattered Clouds
6:53 PM 79.0 °F - 63.0 °F 58% 29.85 in 10.0 mi South 12.7 mph 25.3 mph N/A   Scattered Clouds
7:53 PM 79.0 °F - 62.1 °F 56% 29.87 in 10.0 mi South 12.7 mph 18.4 mph N/A   Mostly Cloudy
8:53 PM 73.9 °F - 63.0 °F 68% 29.88 in 10.0 mi SW 15.0 mph 26.5 mph 0.00 in Rain Light Rain
9:53 PM 71.1 °F - 64.0 °F 78% 29.86 in 10.0 mi South 10.4 mph - 0.00 in   Partly Cloudy
10:53 PM 72.0 °F - 64.0 °F 76% 29.86 in 10.0 mi South 8.1 mph - N/A   Mostly Cloudy
11:53 PM 70.0 °F - 64.0 °F 81% 29.85 in 10.0 mi South 8.1 mph - N/A   Scattered Clouds